Regional Weather Roundup
Issued by NWS

Home | Current Version | Previous Version | Text Only | Print | Product List | Glossary On
Versions: 1 2 3 4 5 6 7 8 9 10 11 12 13 14 15 16 17 18 19 20 21 22 23 24 25 26 27 28 29 30 31 32 33 34 35 36 37 38 39 40 41 42 43 44 45 46 47 48 49 50
000
ASUS46 KLOX 050712
RWRCA

SOUTHERN CALIFORNIA WEATHER ROUNDUP
NATIONAL WEATHER SERVICE OXNARD CALIFORNIA
1100 PM PST WED MAR 04 2015

NOTE: "FAIR" INDICATES FEW OR NO CLOUDS BELOW 12,000 FEET WITH NO
SIGNIFICANT WEATHER AND/OR OBSTRUCTIONS TO VISIBILITY.

  -  STATIONS PRECEEDED BY AN ASTERISK (*) ARE NOT NWS OR FAA
     STATIONS AND ARE NOT SUBJECT TO NWS AND FAA QUALITY CONTROL.

CAZ041-042-087-050800-
LA AND ORANGE COUNTY COASTAL AREAS


CITY           SKY/WX    TMP DP  RH WIND       PRES   REMARKS
L.A. DOWNTOWN  CLEAR     59  41  51 CALM      30.15S
L.A. AIRPORT   PTCLDY    56  48  74 E6        30.16R
LONG BEACH     CLEAR     57  47  69 CALM      30.16R

CITY           SKY/WX    TMP DP  RH WIND       PRES   REMARKS
AVALON           N/A     50 N/A N/A MISG        N/A
FULLERTON      CLEAR     54  40  59 E3        30.15S
*GETTY CENTER    N/A    N/A N/A N/A VRB17       N/A
HAWTHORNE      CLEAR     59  47  64 CALM      30.16R
*LEO CARRILLO    N/A     63  22  21 E6          N/A
*LOS ALAMITOS  FAIR      52  45  77 CALM      30.15S
*REDONDO BEACH   N/A     55  48  77 CALM      30.16R
SANTA ANA      PTCLDY    58  43  57 CALM      30.16R
STA MONICA APT CLEAR     56  42  59 E3        30.16R
*STA MON PIER    N/A     58  42  54 S3        30.15R
*UCLA            N/A     57  25  28 NE5       30.13S

$$

CAZ547-548-048-050800-
LA COUNTY VALLEYS AND INLAND EMPIRE


CITY           SKY/WX    TMP DP  RH WIND       PRES   REMARKS
BURBANK        CLEAR     52  29  41 N3        30.15S
VAN NUYS       CLEAR     53  26  35 CALM      30.16R

CITY           SKY/WX    TMP DP  RH WIND       PRES   REMARKS
CORONA AIRPORT SUNNY     42  35  76 CALM      30.17S
CHINO          CLEAR     49  41  74 CALM      30.18R
*CLAREMONT       N/A     46  34  62 N3          N/A
MARCH AFB      CLEAR     47  26  44 CALM      30.17R
*NORTHRIDGE      N/A     59  10  14 NW1         N/A
ONTARIO        PTCLDY    55  36  48 CALM      30.16S
*PASADENA        N/A     55  36  47 CALM        N/A
RIVERSIDE      CLEAR     50  31  48 E3        30.17S
SAN BERNARDINO NOT AVBL
*SAN RAFAEL HI   N/A     58  12  16 W3          N/A
*SAUGUS          N/A     53  20  27 N6          N/A
*WHITEMAN AP   NOT AVBL
*WHITTIER HILL   N/A     58  34  40 NE7         N/A
*WOODLAND HILL   N/A     48  28  46 SE2         N/A

$$

CAZ054-055-050800-
LA AND SAN BERNARDINO COUNTY MOUNTAINS


CITY           SKY/WX    TMP DP  RH WIND       PRES   REMARKS
*ACTON           N/A     46  12  25 NE3         N/A
*BIG BEAR AIRP SUNNY     23  12  63 E3        30.27S
*BIG PINES       N/A     30  -2  24 CALM        N/A
MT WILSON NWS    N/A     39   1  20 N2          N/A
SANDBERG       CLEAR     44  16  32 NE9       30.24S

$$

CAZ028-029-059-060-099-050800-
ANTELOPE VALLEY AND SURROUNDING AREAS


CITY           SKY/WX    TMP DP  RH WIND       PRES   REMARKS
LANCASTER      CLEAR     32  22  66 N6        30.26R WCI  26
PALMDALE       CLEAR     39  18  42 S3        30.25R
*POPPY PARK      N/A     35  24  64 W3          N/A

CITY           SKY/WX    TMP DP  RH WIND       PRES   REMARKS
29 PALMS       CLEAR     48  19  31 N5        30.31R
BARSTOW/DAGGET CLEAR     45  17  32 W5        30.25R
BISHOP         PTCLDY    30   1  29 NW7       30.27R WCI  23
CHINA LAKE     CLEAR     38  28  67 S8        30.25R WCI  32
EDWARDS AFB    CLEAR     41  21  43 N6        30.23R
MOJAVE         FAIR      39  27  60 N9        30.26R WCI  33
NEEDLES        NOT AVBL
VICTORVILLE      N/A     36  12  38 SW5       30.25R WCI  32

$$

CAZ039-040-050800-
VENTURA AND SANTA BARBARA COUNTY COAST


CITY           SKY/WX    TMP DP  RH WIND       PRES   REMARKS
CAMARILLO      CLEAR     50  41  71 NE3       30.16S
OXNARD AIRPORT CLEAR     51  38  60 NE5       30.17R
*POINT MUGU    PTCLDY    51  43  74 N7        30.17S
SBA APT/GOLETA CLEAR     51  41  68 CALM      30.16R
*SANTA BARBARA   N/A     55  41  59 CALM      30.24S
*VENTURA         N/A     50  34  53 CALM      30.20S

$$

CAZ044-045-050800-
VENTURA COUNTY VALLEYS


CITY           SKY/WX    TMP DP  RH WIND       PRES   REMARKS
*SIMI VALLEY     N/A     53  27  36 CALM      30.15S
*OJAI            N/A     38  34  85 CALM      30.15S
*FILLMORE        N/A     44  34  68 CALM      30.07S

$$

CAZ053-050800-
VENTURA COUNTY MOUNTAINS


CITY           SKY/WX    TMP DP  RH WIND       PRES   REMARKS
*LOCKWOOD VLY    N/A     27  14  59 MISG        N/A
*ROSE VALLEY     N/A     27  27 100 MISG        N/A

$$

CAZ034-035-036-050800-
CENTRAL COAST AND SANTA YNEZ VALLEY


CITY           SKY/WX    TMP DP  RH WIND       PRES   REMARKS
SAN LUIS OBISP CLEAR     48  41  76 CALM      30.19S
SANTA MARIA    CLEAR     49  40  71 CALM      30.19F

CITY           SKY/WX    TMP DP  RH WIND       PRES   REMARKS
*CAL POLY SLO    N/A     46  41  81 CALM        N/A
*LOMPOC        CLEAR     43  36  75 E7        30.19F
*PISMO BEACH     N/A     51  41  70 NE5       30.19S
*SANTA YNEZ    FAIR      45  37  76 E7        30.19F

$$

CAZ037-038-051-050800-
SAN LUIS OBISPO COUNTY INTERIOR AND CUYAMA VALLEY


CITY           SKY/WX    TMP DP  RH WIND       PRES   REMARKS
*CUYAMA          N/A     42  34  74 CALM      30.24S
PASO ROBLES    CLEAR     50  41  71 CALM      30.22R

$$

CAZ032-033-061-050800-
SOUTHERN DESERTS


CITY           SKY/WX    TMP DP  RH WIND       PRES   REMARKS
BLYTHE         CLEAR     53  36  52 W3        30.19R
IMPERIAL       CLEAR     50  36  58 SW3       30.17R
PALM SPRINGS   CLEAR     59  21  23 NW6       30.21R
THERMAL        CLEAR     44  31  60 NW3       30.17R

$$

ELSEWHERE ACROSS THE WESTERN UNITED STATES AND MEXICO


CITY           SKY/WX    TMP DP  RH WIND       PRES   REMARKS
DENVER, CO     CLEAR      5  -1  76 S13       30.19F WCI -12
GRAND CANYON,  PTCLDY    12   9  87 NE5       30.28S WCI   4
HONOLULU, HI   LGT RAIN  70  66  88 N8        30.00R FOG
KAHULUI, MAUI  MOCLDY    68  64  88 CALM      29.97F
LAKE TAHOE, CA CLEAR     26  18  71 S3        30.29R
LAS VEGAS, NV  CLEAR     50  25  37 S8        30.24R
MAMMOTH LAKES, FAIR      23   9  54 CALM      30.31S
MEXICO CITY, M PTCLDY    64  41  42 NE3       30.28S
PHOENIX, AZ    CLEAR     56  38  50 CALM      30.15R
PORTLAND, OR   CLEAR     43  32  65 E3        30.28S
RENO, NV       CLEAR     36  19  50 W3        30.31R
SALT LAKE CITY CLEAR     28  19  69 SE6       30.35R WCI  22
SAN DIEGO, CA  PTCLDY    58  48  69 CALM      30.17S
SAN FRANCISCO, CLEAR     56  40  55 CALM      30.22R
SAN JOSE, CA   CLEAR     52  36  54 SE3       30.22R
SEATTLE, WA    PTCLDY    44  24  45 NE3       30.30S
TIJUANA, MEX   CLEAR     55  46  71 E3        30.18S

$$

STATION/POSITION TIME  TEMP    WIND        PRES    VSBY  WAVE
                       AIR SEA DIR/SP/G                  HT/PER
                 (UTC) (F)     (DEG/KT/KT) (MB)    (MI)  (FT/S)
POINT ARGUELLO B NOT AVBL
WEST SANTA BARBA 0700   60 59  340/  2/  4 1021.2R         4/13
POINT CONCEPTION NOT AVBL
EAST SANTA BARBA NOT AVBL
SANTA MONICA BAY 0700   60 62  320/ 12/ 14 1021.2R


USA.gov is the U.S. government's official web portal to all federal, state and local government web resources and services.